Simultaneous Nadir Overpasses (SNOs) Predictions

Prediction of SNOs between LANDSAT-8 and METOP-B Satellite Orbit:

Table of predicted SNOs for the next 14.0 days since TLE Epoch: 5/6/2014
Index Date (LANDSAT-8) Time (LANDSAT-8) Lat,Lon (LANDSAT-8) SZA (LANDSAT-8 ) Date (METOP-B) Time (METOP-B) Lat,Lon (METOP-B) SZA (METOP-B ) Distance(km) Time Diff (sec)
1 05/07/2014 05:08:57 81.05, 140.83 66.31 05/07/2014 05:08:00 81.05, 140.67 66.27 2.87 57
2 05/07/2014 05:58:23 -81.07, -51.23 113.66 05/07/2014 05:58:39 -81.08, -51.16 113.64 1.31 16
3 05/10/2014 00:43:09 81.06,-152.70 65.56 05/10/2014 00:42:24 81.05,-152.88 65.52 3.25 45
4 05/10/2014 01:32:35 -81.08, 15.26 114.40 05/10/2014 01:33:03 -81.08, 15.28 114.38 0.56 28
5 05/12/2014 20:17:20 81.07, -86.11 64.87 05/12/2014 20:16:46 81.06, -86.11 64.86 0.34 34
6
